Date String (YYYY-MM-DD hh:mm:ss) UTC,Instrument flags,Ambient pressure (hPa),Sample flow (lpm),Bypass flow (lpm),Sample temperature (°C),Ambient temperature (°C),ASC tube jacket temperature (°C),LED temperature (°C),Box temperature (°C),Sample RH (%),Span deviation,Mass concentration (μg/m³),Mass concentration (μg/m³),Mass concentration (μg/m³)
DateTimeUTC,F1_M11,P_M11,Q1_M11,Q2_M11,T1_M11,T2_M11,T3_M11,T4_M11,T5_M11,U1_M11,ZSPAN_M11,X0_M11,X2_M11,X1_M11
2021-11-21 07:00:00,,0832.5,5.01,0.00,24.7,23.8,00.0,33.7,26.5,17.5,0000.0,0011.30,0005.52,0004.67
2021-11-21 07:01:00,,0832.5,4.98,0.00,24.7,23.8,00.0,33.7,26.5,17.5,0000.0,0011.20,0005.43,0004.65
2021-11-21 07:02:00,,0832.6,5.00,0.00,24.7,23.8,00.0,33.7,26.5,17.6,0000.0,0011.00,0005.36,0004.65
2021-11-21 07:03:00,,0832.6,4.99,0.00,24.7,23.8,00.0,33.7,26.5,17.6,0000.0,0011.60,0005.42,0004.66
2021-11-21 07:04:00,,0832.6,5.00,0.00,24.7,23.8,00.0,33.7,26.5,17.6,0000.0,0012.26,0005.49,0004.67
2021-11-21 07:05:00,,0832.6,5.00,0.00,24.7,23.8,00.0,33.7,26.5,17.7,0000.0,0012.31,0005.50,0004.67
2021-11-21 07:06:00,,0832.7,5.00,0.00,24.7,23.8,00.0,33.7,26.5,17.7,0000.0,0012.17,0005.49,0004.66
2021-11-21 07:07:00,,0832.7,5.00,0.00,24.7,23.8,00.0,33.7,26.5,17.8,0000.0,0011.86,0005.56,0004.67
2021-11-21 07:08:00,,0832.7,4.99,0.00,24.7,23.8,00.0,33.7,26.5,17.8,0000.0,0011.67,0005.60,0004.68
2021-11-21 07:09:00,,0832.7,5.01,0.00,24.7,23.8,00.0,33.7,26.5,17.7,0000.0,0012.00,0005.66,0004.71
2021-11-21 07:10:00,,0832.7,4.99,0.00,24.7,23.8,00.0,33.7,26.5,17.7,0000.0,0012.61,0005.80,0004.74
2021-11-21 07:11:00,,0832.7,5.00,0.00,24.7,23.8,00.0,33.7,26.5,17.7,0000.0,0013.50,0005.87,0004.78
2021-11-21 07:12:00,,0832.8,5.00,0.00,24.7,23.8,00.0,33.7,26.5,17.7,0000.0,0013.34,0005.90,0004.79
2021-11-21 07:13:00,,0832.8,5.00,0.00,24.6,23.8,00.0,33.7,26.5,17.7,0000.0,0013.85,0006.00,0004.82
2021-11-21 07:14:00,,0832.7,5.00,0.00,24.6,23.8,00.0,33.7,26.4,17.7,0000.0,0013.93,0006.02,0004.85
2021-11-21 07:15:00,,0832.7,4.99,0.00,24.6,23.8,00.0,33.7,26.4,17.7,0000.0,0014.56,0006.05,0004.88
2021-11-21 07:16:00,,0832.6,5.01,0.00,24.6,23.8,00.0,33.7,26.4,17.7,0000.0,0015.01,0006.08,0004.91
2021-11-21 07:17:00,,0832.6,4.99,0.00,24.6,23.7,00.0,33.6,26.4,17.6,0000.0,0015.24,0006.13,0004.94
2021-11-21 07:18:00,,0832.6,5.00,0.00,24.6,23.7,00.0,33.6,26.4,17.6,0000.0,0015.54,0006.14,0004.96
2021-11-21 07:19:00,,0832.6,4.99,0.00,24.6,23.7,00.0,33.6,26.4,17.6,0000.0,0016.06,0006.17,0004.98
2021-11-21 07:20:00,,0832.6,5.01,0.00,24.6,23.7,00.0,33.6,26.4,17.6,0000.0,0016.17,0006.19,0005.00
2021-11-21 07:21:00,,0832.7,4.99,0.00,24.6,23.7,00.0,33.6,26.4,17.5,0000.2,0016.19,0006.17,0005.02
2021-11-21 07:22:00,,0832.7,5.01,0.00,24.6,23.7,00.0,33.6,26.4,17.5,0000.4,0016.16,0006.13,0005.03
2021-11-21 07:23:00,,0832.8,5.00,0.00,24.6,23.7,00.0,33.6,26.4,17.5,0001.0,0015.96,0006.17,0005.04
2021-11-21 07:24:00,,0832.8,5.01,0.00,24.6,23.7,00.0,33.6,26.4,17.4,0001.4,0016.14,0006.22,0005.04
2021-11-21 07:25:00,,0832.7,5.00,0.00,24.6,23.7,00.0,33.6,26.3,17.4,0001.6,0016.92,0006.22,0005.03
2021-11-21 07:26:00,,0832.8,5.00,0.00,24.6,23.7,00.0,33.6,26.3,17.4,0002.3,0016.44,0006.16,0005.00
2021-11-21 07:27:00,,0832.8,4.99,0.00,24.6,23.7,00.0,33.6,26.3,17.3,0001.8,0015.53,0006.14,0004.99
2021-11-21 07:28:00,,0832.8,5.02,0.00,24.5,23.7,00.0,33.6,26.3,17.2,0000.7,0015.89,0006.14,0004.99
2021-11-21 07:29:00,,0832.8,4.99,0.00,24.5,23.7,00.0,33.6,26.3,17.3,0000.3,0016.08,0006.17,0004.97
2021-11-21 07:30:00,,0832.9,4.99,0.00,24.5,23.6,00.0,33.6,26.2,17.4,0000.0,0015.48,0006.12,0004.94
2021-11-21 07:31:00,,0832.8,5.01,0.00,24.5,23.6,00.0,33.5,26.2,17.5,0000.0,0015.02,0006.06,0004.92
2021-11-21 07:32:00,,0832.8,4.99,0.00,24.5,23.6,00.0,33.5,26.3,17.5,0000.0,0015.61,0006.02,0004.89
2021-11-21 07:33:00,,0832.8,5.00,0.00,24.5,23.6,00.0,33.5,26.3,17.3,0000.0,0015.33,0005.99,0004.87
2021-11-21 07:34:00,,0832.8,5.00,0.00,24.5,23.6,00.0,33.5,26.3,17.4,0000.0,0015.05,0005.98,0004.85
2021-11-21 07:35:00,,0832.8,4.99,0.00,24.5,23.6,00.0,33.5,26.3,17.5,0000.0,0014.83,0005.91,0004.84
2021-11-21 07:36:00,,0832.8,5.00,0.00,24.5,23.6,00.0,33.5,26.3,17.5,0000.0,0012.89,0005.85,0004.84
2021-11-21 07:37:00,,0832.8,5.00,0.00,24.5,23.6,00.0,33.5,26.3,17.4,0000.0,0012.60,0005.88,0004.84
2021-11-21 07:38:00,,0832.8,5.00,0.00,24.5,23.6,00.0,33.5,26.3,17.4,0000.0,0013.24,0005.86,0004.82
2021-11-21 07:39:00,,0832.8,4.99,0.00,24.5,23.6,00.0,33.5,26.3,17.4,0000.0,0013.26,0005.78,0004.79
2021-11-21 07:40:00,,0832.9,5.01,0.00,24.5,23.6,00.0,33.5,26.3,17.5,0000.0,0013.46,0005.72,0004.79
2021-11-21 07:41:00,,0833.0,5.00,0.00,24.5,23.6,00.0,33.5,26.2,17.5,0000.0,0013.89,0005.75,0004.79
2021-11-21 07:42:00,,0833.1,4.99,0.00,24.5,23.6,00.0,33.5,26.3,17.5,0000.0,0014.17,0005.81,0004.78
2021-11-21 07:43:00,,0833.1,5.01,0.00,24.5,23.6,00.0,33.5,26.3,17.5,-000.2,0013.34,0005.81,0004.76
2021-11-21 07:44:00,,0833.1,5.00,0.00,24.5,23.6,00.0,33.5,26.2,17.5,-000.1,0013.20,0005.79,0004.76
2021-11-21 07:45:00,,0833.0,5.00,0.00,24.4,23.6,00.0,33.5,26.2,17.5,-000.2,0013.40,0005.78,0004.75
2021-11-21 07:46:00,,0833.1,4.99,0.00,24.4,23.6,00.0,33.5,26.2,17.5,-000.0,0013.49,0005.79,0004.75
2021-11-21 07:47:00,,0833.1,5.02,0.00,24.4,23.5,00.0,33.5,26.2,17.5,-000.1,0014.46,0005.86,0004.75
2021-11-21 07:48:00,,0833.1,5.00,0.00,24.4,23.5,00.0,33.5,26.2,17.5,-000.0,0014.47,0005.82,0004.74
2021-11-21 07:49:00,,0833.1,4.99,0.00,24.4,23.5,00.0,33.5,26.2,17.6,0000.0,0013.84,0005.86,0004.73
2021-11-21 07:50:00,,0833.1,5.00,0.00,24.4,23.5,00.0,33.4,26.2,17.6,0000.0,0013.54,0005.91,0004.74
2021-11-21 07:51:00,,0833.1,5.00,0.00,24.4,23.5,00.0,33.4,26.2,17.6,0000.0,0013.28,0005.95,0004.73
2021-11-21 07:52:00,,0833.1,5.00,0.00,24.4,23.5,00.0,33.4,26.2,17.6,0000.0,0013.06,0005.95,0004.72
2021-11-21 07:53:00,,0833.2,4.99,0.00,24.4,23.5,00.0,33.4,26.2,17.6,0000.0,0012.92,0005.92,0004.72
2021-11-21 07:54:00,,0833.3,5.00,0.00,24.4,23.5,00.0,33.4,26.2,17.6,0000.0,0012.93,0005.93,0004.73
2021-11-21 07:55:00,,0833.3,5.00,0.00,24.4,23.5,00.0,33.4,26.2,17.6,0000.0,0013.73,0006.00,0004.72
2021-11-21 07:56:00,,0833.4,5.01,0.00,24.4,23.5,00.0,33.4,26.2,17.6,0000.0,0013.76,0006.01,0004.71
2021-11-21 07:57:00,,0833.4,4.99,0.00,24.4,23.5,00.0,33.4,26.2,17.6,0000.0,0014.23,0006.02,0004.71
2021-11-21 07:58:00,,0833.3,5.00,0.00,24.4,23.5,00.0,33.4,26.2,17.6,0000.0,0014.04,0006.01,0004.70
2021-11-21 07:59:00,,0833.3,5.00,0.00,24.4,23.5,00.0,33.4,26.2,17.5,0000.0,0013.81,0006.01,0004.70
